VE1DX Weather Reports


Display with metric or nautical units.
time (UTC)temp
F
wind
direction
speed
MPH
gust
MPH
rain 1hr
in
rain 24hr
in
rain mn
in
humidity
%
barometer
mb
20260506123516 53 203 2.0 7.0 0.00 0.00 0.00 90 1018.7
20260506123016 53 113 3.0 7.0 0.00 0.00 0.00 90 1018.5
20260506122516 53 158 2.0 11.0 0.00 0.00 0.00 90 1018.5
20260506122016 52 135 2.0 6.0 0.00 0.00 0.00 90 1018.5
20260506121516 52 225 3.0 11.0 0.00 0.00 0.00 90 1018.5
20260506121016 52 158 2.0 7.0 0.00 0.00 0.00 90 1018.4
20260506120516 52 135 3.0 9.0 0.00 0.00 0.00 90 1018.4
20260506120016 52 158 2.0 7.0 0.00 0.00 0.00 90 1018.3
20260506115516 52 135 3.0 9.0 0.00 0.00 0.00 89 1018.2
20260506115016 52 158 2.0 7.0 0.00 0.00 0.00 90 1018.2
20260506114516 52 135 2.0 6.0 0.00 0.00 0.00 90 1018.2
20260506114016 52 135 3.0 6.0 0.00 0.00 0.00 90 1018.1
20260506113516 51 135 2.0 6.0 0.00 0.00 0.00 90 1018.2
20260506113016 51 135 3.0 9.0 0.00 0.00 0.00 91 1018.2
20260506112516 51 180 4.0 18.0 0.00 0.00 0.00 90 1018.1
20260506112016 51 203 3.0 7.0 0.00 0.00 0.00 91 1018.2
20260506111516 51 225 3.0 15.0 0.00 0.00 0.00 91 1018.1
20260506111016 51 203 4.0 12.0 0.00 0.00 0.00 91 1018.1
20260506110516 51 225 5.0 14.0 0.00 0.00 0.00 91 1018.2
20260506110016 51 225 3.0 13.0 0.00 0.00 0.00 91 1018.2
20260506105516 51 158 4.0 11.0 0.00 0.00 0.00 91 1018.2
20260506105016 50 225 4.0 12.0 0.00 0.00 0.00 91 1018.1
20260506104516 50 158 3.0 7.0 0.00 0.00 0.00 91 1018.1
20260506104016 50 135 3.0 11.0 0.00 0.00 0.00 91 1018.1
20260506103516 50 225 3.0 13.0 0.00 0.00 0.00 91 1018.0
20260506103016 50 158 3.0 11.0 0.00 0.00 0.00 91 1018.0
20260506102516 50 135 3.0 11.0 0.00 0.00 0.00 91 1018.0
20260506102016 50 225 4.0 12.0 0.00 0.00 0.00 91 1018.0
20260506101516 50 158 3.0 9.0 0.00 0.00 0.00 91 1018.0
20260506101016 50 135 2.0 7.0 0.00 0.00 0.00 91 1017.9
20260506100516 50 135 3.0 10.0 0.00 0.00 0.00 90 1017.8
20260506100016 50 225 3.0 10.0 0.00 0.00 0.00 90 1017.7
20260506095516 50 225 3.0 11.0 0.00 0.00 0.00 90 1017.6
20260506095016 50 180 3.0 11.0 0.00 0.00 0.00 90 1017.6
20260506094516 51 225 3.0 8.0 0.00 0.00 0.00 90 1017.6
20260506094016 51 135 2.0 8.0 0.00 0.00 0.00 90 1017.5
20260506093517 51 158 3.0 10.0 0.00 0.00 0.00 91 1017.5
20260506093016 51 225 4.0 12.0 0.00 0.00 0.00 91 1017.3
20260506092516 51 225 4.0 12.0 0.00 0.00 0.00 91 1017.3
20260506092016 51 113 2.0 10.0 0.00 0.00 0.00 90 1017.4
20260506091516 51 203 3.0 10.0 0.00 0.00 0.00 90 1017.1
20260506091016 51 203 4.0 11.0 0.00 0.00 0.00 90 1017.2
20260506090516 51 135 3.0 10.0 0.00 0.00 0.00 90 1017.1
20260506090021 51 135 3.0 11.0 0.00 0.00 0.00 90 1017.2
20260506085516 51 135 2.0 8.0 0.00 0.00 0.00 90 1017.0
20260506085016 51 113 3.0 9.0 0.00 0.00 0.00 90 1017.1
20260506084516 51 158 4.0 10.0 0.00 0.00 0.00 90 1016.9
20260506084016 51 158 2.0 7.0 0.00 0.00 0.00 91 1017.0
20260506083516 51 158 2.0 7.0 0.00 0.00 0.00 90 1017.0
20260506083016 51 203 3.0 16.0 0.00 0.00 0.00 90 1017.1
20260506082516 51 158 1.0 9.0 0.00 0.00 0.00 90 1017.0
20260506082016 51 135 3.0 8.0 0.00 0.00 0.00 90 1016.9
20260506081516 51 225 3.0 11.0 0.00 0.00 0.00 90 1016.9
20260506081016 51 225 2.0 7.0 0.00 0.00 0.00 90 1017.0
20260506080516 51 135 3.0 11.0 0.00 0.00 0.00 90 1017.0
20260506073517 51 135 3.0 11.0 0.00 0.00 0.00 90 1017.1
20260506073017 51 180 3.0 12.0 0.00 0.00 0.00 90 1017.0
20260506072517 51 135 3.0 10.0 0.00 0.00 0.00 90 1017.0
20260506072016 51 225 4.0 12.0 0.00 0.00 0.00 90 1017.0
20260506071516 51 225 3.0 9.0 0.00 0.00 0.00 90 1017.0
20260506071016 51 225 3.0 10.0 0.00 0.00 0.00 90 1016.9
20260506070516 51 135 2.0 10.0 0.00 0.00 0.00 90 1016.9
20260506062516 51 158 3.0 7.0 0.00 0.00 0.00 90 1016.8
20260506062016 51 135 2.0 7.0 0.00 0.00 0.00 90 1016.8
20260506061516 51 135 2.0 8.0 0.00 0.00 0.00 90 1016.8
20260506061016 51 135 3.0 10.0 0.00 0.00 0.00 90 1016.8
20260506060516 51 158 4.0 11.0 0.00 0.00 0.00 90 1016.8
20260506051016 51 158 3.0 8.0 0.00 0.00 0.00 90 1016.8
20260506050516 51 135 3.0 10.0 0.00 0.00 0.00 90 1016.9
20260506045016 51 135 3.0 8.0 0.00 0.00 0.00 90 1016.8
20260506044516 51 135 2.0 11.0 0.00 0.00 0.00 89 1017.0
20260506044016 51 135 2.0 7.0 0.00 0.00 0.00 89 1016.8
20260506043516 51 158 2.0 6.0 0.00 0.00 0.00 89 1016.7
20260506043016 51 158 2.0 6.0 0.00 0.00 0.00 89 1016.6
20260506042516 51 158 2.0 5.0 0.00 0.00 0.00 89 1016.7
20260506042016 51 135 2.0 5.0 0.00 0.00 0.00 89 1016.6
20260506041516 50 135 3.0 11.0 0.00 0.00 0.00 89 1016.7
20260506041016 50 158 2.0 7.0 0.00 0.00 0.00 89 1016.8
20260506040516 50 135 2.0 9.0 0.00 0.00 0.00 89 1016.7
20260506040016 50 135 3.0 7.0 0.00 0.00 0.00 89 1016.7
20260506035516 50 158 3.0 9.0 0.00 0.00 0.00 89 1016.6
20260506035016 51 135 2.0 6.0 0.00 0.00 0.00 89 1016.6
20260506034516 51 158 3.0 8.0 0.00 0.00 0.00 89 1016.7
20260506034016 51 158 3.0 6.0 0.00 0.00 0.00 89 1016.8
20260506033516 51 135 3.0 8.0 0.00 0.00 0.00 89 1016.8
20260506033016 51 158 3.0 12.0 0.00 0.00 0.00 89 1016.8
20260506032516 51 158 3.0 16.0 0.00 0.00 0.00 89 1016.7
20260506032016 51 158 2.0 12.0 0.00 0.00 0.00 89 1016.6
20260506031516 51 135 2.0 10.0 0.00 0.00 0.00 89 1016.6
20260506031016 51 158 3.0 10.0 0.00 0.00 0.00 90 1016.6
20260506030516 51 158 3.0 7.0 0.00 0.00 0.00 90 1016.6
20260506030016 50 135 2.0 8.0 0.00 0.00 0.00 89 1016.7
20260506025516 50 158 2.0 6.0 0.00 0.00 0.00 89 1016.6
20260506025016 50 158 2.0 6.0 0.00 0.00 0.00 89 1016.6
20260506024517 50 158 2.0 7.0 0.00 0.00 0.00 89 1016.6
20260506024016 50 158 2.0 13.0 0.00 0.00 0.00 89 1016.5
20260506023516 50 135 3.0 7.0 0.00 0.00 0.00 89 1016.6
20260506023016 50 135 2.0 6.0 0.00 0.00 0.00 89 1016.6
20260506022517 51 135 2.0 6.0 0.00 0.00 0.00 89 1016.6
20260506022016 51 135 2.0 9.0 0.00 0.00 0.00 89 1016.6
20260506021516 51 158 3.0 12.0 0.00 0.00 0.00 89 1016.6
20260506021017 51 158 3.0 10.0 0.00 0.00 0.00 89 1016.6
20260506020516 51 203 3.0 8.0 0.00 0.00 0.00 88 1016.5
20260506020016 51 135 3.0 9.0 0.00 0.00 0.00 88 1016.6
20260506015516 51 203 2.0 10.0 0.00 0.00 0.00 88 1016.8
20260506015017 51 180 3.0 12.0 0.00 0.00 0.00 88 1016.6
20260506014516 51 135 3.0 11.0 0.00 0.00 0.00 88 1016.6
20260506014016 52 203 2.0 8.0 0.00 0.00 0.00 88 1016.7
20260506013516 52 135 3.0 10.0 0.00 0.00 0.00 88 1016.7
20260506013016 52 158 3.0 11.0 0.00 0.00 0.00 88 1016.6
20260506012516 52 135 2.0 7.0 0.00 0.00 0.00 88 1016.6
20260506012016 52 135 3.0 13.0 0.00 0.00 0.00 89 1016.6
20260506011517 52 203 3.0 9.0 0.00 0.00 0.00 89 1016.5
20260506011017 52 135 3.0 10.0 0.00 0.00 0.00 89 1016.4
20260506010516 51 225 2.0 9.0 0.00 0.00 0.00 88 1016.4
20260506010017 51 135 2.0 4.0 0.00 0.00 0.00 88 1016.3
20260506005516 51 135 3.0 10.0 0.00 0.00 0.00 89 1016.1
20260506005016 51 158 2.0 7.0 0.00 0.00 0.00 88 1016.0
20260506004516 52 135 3.0 11.0 0.00 0.00 0.00 88 1016.0
20260506004017 52 203 4.0 11.0 0.00 0.00 0.00 88 1016.0
20260506003516 52 135 3.0 7.0 0.00 0.00 0.00 88 1015.9
20260506003016 52 225 4.0 13.0 0.00 0.00 0.00 88 1015.7
20260506002517 52 135 3.0 13.0 0.00 0.00 0.00 88 1015.5
20260506002016 52 135 2.0 7.0 0.00 0.00 0.00 88 1015.4
20260506001516 52 203 4.0 10.0 0.00 0.00 0.00 88 1015.6
20260506001016 52 225 3.0 10.0 0.00 0.00 0.00 88 1015.2
20260506000517 52 158 5.0 10.0 0.00 0.00 0.00 88 1015.0
20260506000016 52 225 4.0 11.0 0.00 0.00 0.00 88 1015.1
20260505235516 52 113 3.0 8.0 0.00 0.00 0.00 88 1015.1
20260505235016 52 158 2.0 8.0 0.00 0.00 0.00 88 1014.9
20260505234517 52 135 2.0 7.0 0.00 0.00 0.00 88 1014.9
20260505234016 52 158 3.0 10.0 0.00 0.00 0.00 88 1014.8
20260505233517 52 203 4.0 11.0 0.00 0.00 0.00 88 1014.8
20260505233017 52 225 2.0 6.0 0.00 0.00 0.00 88 1014.6
20260505232517 52 158 3.0 10.0 0.00 0.00 0.00 88 1014.7
20260505232017 52 135 3.0 8.0 0.00 0.00 0.00 88 1014.6
20260505231516 52 158 3.0 10.0 0.00 0.00 0.00 88 1014.5
20260505231016 52 158 4.0 11.0 0.00 0.00 0.00 88 1014.4
20260505230516 52 135 2.0 6.0 0.00 0.00 0.00 87 1014.2
20260505230017 52 158 3.0 7.0 0.00 0.00 0.00 87 1014.2
20260505225516 53 135 3.0 12.0 0.00 0.00 0.00 87 1014.3
20260505225016 53 135 4.0 12.0 0.00 0.00 0.00 86 1014.3
20260505224516 53 135 3.0 10.0 0.00 0.00 0.00 86 1014.2
20260505224016 53 158 4.0 11.0 0.00 0.00 0.00 86 1014.2
20260505223516 54 135 4.0 13.0 0.00 0.00 0.00 86 1014.1
20260505223016 54 225 5.0 16.0 0.00 0.00 0.00 86 1013.9
20260505222516 54 158 4.0 12.0 0.00 0.00 0.00 85 1013.9
20260505222017 54 135 3.0 15.0 0.00 0.00 0.00 85 1013.9
20260505221516 54 225 4.0 15.0 0.00 0.00 0.00 85 1013.7
20260505221016 54 135 4.0 12.0 0.00 0.00 0.00 84 1013.8
20260505220516 54 135 3.0 13.0 0.00 0.00 0.00 84 1013.8
20260505220016 54 158 3.0 10.0 0.00 0.00 0.00 83 1013.8
20260505215516 54 225 4.0 12.0 0.00 0.00 0.00 83 1013.8
20260505215016 55 158 4.0 12.0 0.00 0.00 0.00 82 1013.5
20260505214517 55 158 4.0 10.0 0.00 0.00 0.00 82 1013.6
20260505214016 56 158 4.0 12.0 0.00 0.00 0.00 80 1013.5
20260505213517 56 158 4.0 13.0 0.00 0.00 0.00 79 1013.5
20260505213016 57 225 4.0 17.0 0.00 0.00 0.00 78 1013.4
20260505212517 57 135 3.0 12.0 0.00 0.00 0.00 78 1013.3
20260505212016 57 158 6.0 21.0 0.00 0.00 0.00 77 1013.3
20260505211516 58 135 3.0 14.0 0.00 0.00 0.00 77 1013.3
20260505211016 58 135 3.0 7.0 0.00 0.00 0.00 76 1013.3
20260505210517 58 158 3.0 12.0 0.00 0.00 0.00 77 1013.3
20260505210016 58 203 5.0 14.0 0.00 0.00 0.00 76 1013.3
20260505205516 58 180 5.0 15.0 0.00 0.00 0.00 76 1013.3
20260505205016 58 180 6.0 15.0 0.00 0.00 0.00 75 1013.6
20260505204516 59 135 4.0 12.0 0.00 0.00 0.00 75 1013.5
20260505204016 59 135 4.0 10.0 0.00 0.00 0.00 74 1013.5
20260505203517 59 135 4.0 16.0 0.00 0.00 0.00 75 1013.5
20260505203016 59 135 4.0 11.0 0.00 0.00 0.00 73 1013.5
20260505202516 60 158 4.0 9.0 0.00 0.00 0.00 73 1013.5
20260505202017 60 135 4.0 12.0 0.00 0.00 0.00 72 1013.4
20260505201516 60 113 3.0 10.0 0.00 0.00 0.00 72 1013.6
20260505201017 60 135 4.0 20.0 0.00 0.00 0.00 72 1013.6
20260505200516 60 158 4.0 13.0 0.00 0.00 0.00 71 1013.6
20260505200017 60 135 3.0 9.0 0.00 0.00 0.00 72 1013.6
20260505195516 61 158 4.0 10.0 0.00 0.00 0.00 71 1013.6
20260505195016 61 158 3.0 8.0 0.00 0.00 0.00 71 1013.5
20260505194516 61 135 4.0 8.0 0.00 0.00 0.00 70 1013.5
20260505194016 61 158 4.0 10.0 0.00 0.00 0.00 71 1013.5
20260505193517 61 158 5.0 11.0 0.00 0.00 0.00 70 1013.6
20260505193016 61 158 4.0 11.0 0.00 0.00 0.00 70 1013.5
20260505192517 61 135 4.0 12.0 0.00 0.00 0.00 69 1013.6
20260505192016 62 158 3.0 8.0 0.00 0.00 0.00 69 1013.7
20260505191516 62 113 4.0 8.0 0.00 0.00 0.00 68 1013.7
20260505191016 62 113 4.0 9.0 0.00 0.00 0.00 68 1013.6
20260505190516 62 158 4.0 11.0 0.00 0.00 0.00 68 1013.6
20260505190021 62 135 4.0 13.0 0.00 0.00 0.00 67 1013.5
20260505185516 62 135 5.0 11.0 0.00 0.00 0.00 67 1013.6
20260505185016 62 135 4.0 9.0 0.00 0.00 0.00 67 1013.7
20260505184516 62 135 4.0 10.0 0.00 0.00 0.00 66 1013.5
20260505184016 62 135 4.0 11.0 0.00 0.00 0.00 66 1013.8
20260505183517 63 135 4.0 12.0 0.00 0.00 0.00 66 1013.8
20260505183016 63 158 3.0 9.0 0.00 0.00 0.00 65 1013.7
20260505182516 62 158 4.0 13.0 0.00 0.00 0.00 65 1013.7
20260505182017 62 135 3.0 6.0 0.00 0.00 0.00 65 1013.8
20260505181516 62 135 3.0 7.0 0.00 0.00 0.00 64 1013.8
20260505181017 62 180 3.0 6.0 0.00 0.00 0.00 65 1013.8
20260505180516 62 135 3.0 8.0 0.00 0.00 0.00 63 1013.9
20260505180016 62 135 3.0 7.0 0.00 0.00 0.00 63 1013.8
20260505175516 62 135 3.0 9.0 0.00 0.00 0.00 63 1013.7
20260505175016 62 135 3.0 12.0 0.00 0.00 0.00 64 1013.9
20260505174517 62 135 3.0 10.0 0.00 0.00 0.00 63 1013.8
20260505174016 62 225 3.0 8.0 0.00 0.00 0.00 63 1013.9
20260505173517 62 158 3.0 11.0 0.00 0.00 0.00 62 1013.9
20260505173016 62 158 3.0 9.0 0.00 0.00 0.00 61 1014.0
20260505172516 62 135 4.0 10.0 0.00 0.00 0.00 61 1013.8
20260505172016 62 158 4.0 12.0 0.00 0.00 0.00 61 1013.8
20260505171517 63 158 3.0 7.0 0.00 0.00 0.00 61 1013.8
20260505171016 63 158 3.0 9.0 0.00 0.00 0.00 61 1013.8
20260505170516 63 135 3.0 9.0 0.00 0.00 0.00 61 1013.7
20260505170016 62 203 3.0 9.0 0.00 0.00 0.00 63 1013.9
20260505165516 62 135 4.0 11.0 0.00 0.00 0.00 62 1013.9
20260505165016 62 135 3.0 7.0 0.00 0.00 0.00 65 1013.9
20260505164517 61 135 3.0 10.0 0.00 0.00 0.00 64 1014.0
20260505164016 61 135 3.0 9.0 0.00 0.00 0.00 65 1013.8
20260505163516 61 225 3.0 9.0 0.00 0.00 0.00 65 1013.9
20260505163016 61 203 4.0 10.0 0.00 0.00 0.00 66 1013.9
20260505162516 61 158 3.0 8.0 0.00 0.00 0.00 64 1014.0
20260505162016 61 135 3.0 8.0 0.00 0.00 0.00 64 1013.9
20260505161517 61 135 3.0 6.0 0.00 0.00 0.00 65 1014.0
20260505161016 60 135 3.0 6.0 0.00 0.00 0.00 65 1014.0
20260505160516 60 158 3.0 10.0 0.00 0.00 0.00 66 1013.9
20260505153017 60 158 3.0 7.0 0.00 0.00 0.00 65 1013.7
20260505152516 60 158 3.0 9.0 0.00 0.00 0.00 65 1013.7
20260505152016 60 225 2.0 10.0 0.00 0.00 0.00 66 1013.8
20260505151516 60 135 2.0 7.0 0.00 0.00 0.00 65 1013.7
20260505151017 60 135 2.0 5.0 0.00 0.00 0.00 66 1013.8
20260505150516 59 158 2.0 5.0 0.00 0.00 0.00 68 1013.9
20260505140517 56 158 5.0 10.0 0.00 0.00 0.00 69 1013.6
20260505125017 57 158 2.0 10.0 0.00 0.00 0.00 67 1013.4
20260505124516 57 135 2.0 6.0 0.00 0.00 0.00 69 1013.4
20260505124016 57 135 2.0 6.0 0.00 0.00 0.00 69 1013.4